Overview Statistics Trail Chart Weather Telemetry Raw packets
 

This is the latest recevied weather packets stored in our database for station/object DM8MH-13. If no packets are shown the sender has not sent any weather packets the latest 10 day(s).

<< 27 28 29 30 31 32 33 >>
Time Temp. Humidity Pressure Rain* Wind** Luminosity Snow
1788174671 22.22° C 65% 1012 hPa 0.25 mm - 795 W/m² -
1788174072 22.22° C 69% 1011.9 hPa 0 mm - 259 W/m² -
1788173472 21.67° C 68% 1012 hPa 0 mm - 255 W/m² -
1788172871 21.67° C 68% 1012 hPa 0 mm - 174 W/m² -
1788172271 21.67° C 70% 1012 hPa 0 mm - 174 W/m² -
1788171671 21.11° C 73% 1012.1 hPa 0 mm - 308 W/m² -
1788171072 20.56° C 76% 1012.1 hPa 0 mm - 320 W/m² -
1788170472 20.56° C 76% 1012.2 hPa 0 mm - 206 W/m² -
1788169872 20° C 78% 1012.3 hPa 0 mm - 325 W/m² -
1788169270 19.44° C 81% 1012.2 hPa 0 mm - 223 W/m² -
1788168671 19.44° C 82% 1012.2 hPa 0 mm - 139 W/m² -
1788168071 19.44° C 83% 1012.2 hPa 0 mm - 156 W/m² -
1788167471 18.89° C 84% 1012.2 hPa 0 mm - 132 W/m² -
1788166872 18.33° C 85% 1012.1 hPa 0 mm - 138 W/m² -
1788166272 18.33° C 87% 1012.1 hPa 0 mm - 266 W/m² -
1788165671 18.33° C 87% 1011.9 hPa 0 mm - 74 W/m² -
1788165071 18.33° C 87% 1011.9 hPa 0 mm - 38 W/m² -
1788164471 18.33° C 87% 1011.8 hPa 0 mm - 63 W/m² -
1788163871 18.33° C 87% 1011.7 hPa 0 mm - 137 W/m² -
1788163272 18.33° C 87% 1011.9 hPa 0 mm - 194 W/m² -
1788162672 18.33° C 88% 1011.7 hPa 0 mm - 248 W/m² -
1788162071 17.78° C 88% 1011.7 hPa 0 mm - 394 W/m² -
1788161471 17.78° C 89% 1011.8 hPa 0 mm - 269 W/m² -
1788160871 17.78° C 89% 1011.8 hPa 0 mm - 97 W/m² -
1788160270 17.22° C 89% 1011.9 hPa 0 mm - 119 W/m² -

* Rain latest hour (hover to see other rain measurements)
** Current wind speed in m/s (hover to see current wind gust speed)